Wind_Speed
57 51 48 48 44 38 41 41 42 40 42 41 43 47 47 44 43 36 31 26 24 25 30 20 13 11 8 5 10 12 12 14 29 31 34 31 30 29 28 33 32 31 30
60 57 53 49 50 43 44 43 40 37 33 37 32 35 41 43 44 40 33 27 25 25 25 27 18 14 11 11 14 13 11 10 14 32 27 28 31 36 31 30 34 34 36
62 59 55 54 52 48 48 49 48 41 38 38 32 32 39 43 45 44 40 38 33 25 23 30 25 21 15 16 17 17 12 9 10 16 30 28 32 28 33 33 31 32 34
64 59 58 58 55 54 54 49 57 48 38 34 39 44 41 43 45 50 47 41 37 28 28 23 24 24 19 23 19 18 13 11 9 11 17 27 32 34 30 34 34 34 35
72 66 62 60 58 55 56 62 62 49 44 53 47 45 47 53 53 48 53 50 43 37 40 36 33 30 25 22 17 20 21 18 15 14 16 17 30 33 36 29 33 32 34
80 77 72 69 64 61 60 61 68 62 55 54 55 52 51 51 55 63 58 55 50 48 47 44 33 33 30 17 19 26 36 30 23 22 16 13 19 31 27 30 35 32 30
88 85 81 78 75 72 68 70 74 64 62 65 61 61 54 41 40 64 57 57 56 54 50 47 44 47 40 29 32 31 40 33 29 25 17 15 6 10 14 20 26 31 34
93 90 90 90 87 84 81 77 81 79 79 76 73 67 62 56 68 63 60 54 57 58 57 62 57 55 45 38 36 29 29 35 39 32 21 19 10 8 11 10 11 16 23
106 104 100 99 98 96 93 89 84 85 84 91 86 79 77 73 74 62 60 53 61 63 61 60 59 57 50 42 40 40 37 32 44 38 31 26 22 21 22 19 24 20 22
112 112 108 106 107 107 103 97 91 88 90 90 102 92 85 81 77 76 64 57 54 61 61 62 60 57 54 48 48 45 46 46 44 44 43 48 35 32 30 33 34 26 26
116 115 111 110 106 105 104 101 97 92 92 94 98 106 95 90 84 79 77 67 59 64 66 67 65 64 57 53 52 54 54 55 45 50 46 56 53 45 33 33 32 31 24
104 104 103 103 101 103 100 100 97 97 96 99 99 103 106 98 93 87 80 78 70 68 74 71 68 64 60 64 57 55 52 48 48 50 53 57 61 51 39 41 38 37 27
84 84 86 89 94 95 100 101 99 99 100 99 105 103 108 106 101 95 91 82 79 71 77 77 70 67 67 68 67 65 57 51 51 53 56 59 61 57 49 45 47 42 37
69 71 71 74 79 84 90 92 93 97 101 102 104 109 108 109 107 100 99 95 88 80 80 83 76 69 70 67 62 58 57 57 56 55 56 64 65 61 60 54 51 47 46
57 59 60 65 70 73 75 80 84 87 93 101 107 109 114 114 113 108 106 103 100 95 86 87 84 80 71 66 65 70 64 59 61 58 63 66 68 66 66 60 55 51 56
49 49 50 57 60 64 69 73 77 78 83 90 98 108 113 120 122 116 113 112 109 102 94 92 89 84 80 75 73 70 69 66 64 64 67 68 70 70 66 64 60 64 69
45 47 48 48 53 57 62 63 65 68 72 77 84 96 106 112 119 122 121 116 113 113 105 97 93 90 87 85 80 79 76 74 76 73 73 74 73 75 73 71 76 81 78
42 44 46 48 50 52 54 60 61 58 63 70 76 83 91 103 110 117 124 122 120 120 116 105 104 98 93 91 86 86 86 84 85 85 83 85 86 86 84 85 88 86 85
43 47 49 50 52 53 53 53 53 54 56 63 69 75 81 89 98 109 117 124 123 118 115 113 113 111 105 104 101 93 92 93 96 97 97 94 96 96 96 95 93 89 87
45 49 50 51 51 50 51 53 54 49 47 52 57 66 74 77 85 93 105 113 119 121 119 114 115 117 113 108 107 106 102 100 102 101 106 105 101 100 101 96 95 96 90
46 45 44 46 49 51 48 46 47 46 44 44 52 58 63 71 76 83 91 102 112 116 118 118 115 114 116 116 114 110 109 112 108 110 113 112 108 106 106 101 98 91 87
41 40 41 42 39 38 39 39 38 37 36 38 42 49 55 64 68 73 80 85 94 102 110 114 116 116 117 118 116 115 117 111 111 114 117 117 112 105 100 97 91 86 84
35 33 34 32 28 27 28 26 23 23 25 29 34 39 44 52 58 64 68 74 82 90 100 106 113 116 114 116 115 114 113 128 122 119 122 120 115 109 100 95 93 90 85
33 33 32 24 22 22 20 19 18 17 18 20 25 29 32 40 48 54 59 63 70 78 88 93 102 107 110 110 116 116 116 114 110 116 122 123 119 108 102 96 88 83 79
30 28 28 22 22 23 21 16 16 17 12 9 16 19 21 26 36 42 47 53 56 63 71 80 88 95 98 102 108 116 120 118 117 114 117 107 93 90 88 81 78 74 70
27 26 26 25 26 25 24 21 14 9 6 10 14 13 14 16 20 26 32 38 45 49 55 61 68 75 82 85 89 92 93 93 92 91 92 89 83 81 79 74 70 68 60
Wind_Direction
276 274 271 261 264 256 255 260 259 263 266 263 266 262 259 260 266 254 257 257 264 278 277 245 270 280 295 252 318 341 331 266 232 230 224 226 232 240 250 251 255 257 265
271 272 270 264 258 249 249 251 246 258 257 259 262 264 256 260 260 258 252 255 240 268 264 254 263 270 276 292 294 323 341 327 263 235 236 220 231 237 240 249 251 253 259
268 266 264 260 261 250 247 245 246 242 241 244 253 255 265 263 256 257 253 257 246 236 244 242 253 261 276 293 303 290 321 333 331 265 239 236 231 239 243 237 244 252 256
265 265 260 256 256 254 245 237 250 237 224 229 236 241 255 261 257 254 258 252 240 230 231 248 260 252 267 272 289 293 299 328 348 332 275 243 237 229 239 249 244 245 251
265 262 259 260 258 257 249 244 241 223 220 233 229 228 249 257 258 256 256 257 237 233 233 234 237 246 251 242 276 292 302 292 297 312 321 268 246 238 229 240 250 253 250
266 263 262 262 259 257 251 246 239 231 224 228 227 235 236 247 257 264 258 247 242 248 241 240 231 252 246 241 269 285 294 290 286 294 298 292 260 243 243 248 247 259 261
266 266 263 263 262 259 258 244 238 229 231 231 229 237 231 241 263 257 249 241 239 241 246 237 248 252 240 235 244 247 273 279 281 277 275 267 17 224 260 270 270 263 264
264 263 263 264 263 261 259 253 252 244 235 234 228 232 227 229 239 247 244 238 238 236 244 248 252 257 245 241 240 233 256 271 276 271 249 258 246 242 274 314 319 337 286
269 268 267 266 264 263 260 257 253 249 241 238 236 234 234 240 244 243 243 239 240 241 242 249 248 249 247 244 239 238 246 254 264 269 252 260 246 264 277 291 298 318 322
271 270 267 266 265 263 261 256 253 247 244 239 238 235 237 240 241 242 242 233 238 245 244 245 248 250 249 243 240 246 245 249 256 262 268 263 252 274 272 288 301 304 316
271 269 267 265 262 260 258 254 252 248 241 240 238 240 236 236 240 239 238 237 234 240 242 242 244 248 246 239 246 252 255 251 254 258 263 264 269 272 279 286 293 303 300
267 265 264 263 261 258 256 254 250 246 244 236 238 237 238 234 236 238 238 239 234 235 241 241 242 243 244 244 248 254 255 253 254 260 262 266 269 271 278 278 287 299 289
266 265 263 261 260 258 256 253 251 248 244 238 235 235 234 236 238 239 237 241 237 233 236 240 239 243 248 247 247 248 251 253 252 258 258 265 266 278 274 280 286 290 281
266 264 261 258 257 254 252 251 248 245 243 240 235 234 233 232 236 240 240 240 239 234 235 238 237 239 240 247 246 246 252 254 252 255 256 254 266 275 277 282 283 284 278
259 258 257 256 255 254 252 250 248 245 242 239 235 232 232 231 231 234 237 240 241 240 239 237 239 240 239 239 245 248 251 247 253 253 255 258 264 271 275 278 278 275 282
256 252 253 251 252 253 251 249 248 246 245 243 239 235 231 232 232 231 234 237 239 239 241 236 238 238 237 237 238 244 246 246 250 256 260 257 264 269 272 276 274 277 287
259 257 256 251 252 253 256 253 248 248 245 244 243 239 236 235 234 232 232 234 236 239 238 241 233 234 238 238 237 234 241 247 252 253 258 260 263 266 267 268 271 277 282
258 254 256 254 254 257 256 256 256 248 248 245 244 241 238 236 235 235 233 233 234 237 238 239 237 236 234 236 238 238 240 243 246 249 252 257 258 260 261 263 270 272 279
248 252 260 260 259 257 260 263 265 259 249 243 244 243 241 238 236 235 233 233 234 236 237 238 239 239 235 236 238 239 242 244 246 250 253 252 254 258 262 265 267 271 275
245 251 253 257 262 265 266 267 269 268 262 252 245 245 244 241 239 238 235 233 233 234 236 237 239 242 240 239 239 240 241 243 245 251 253 256 259 259 265 268 268 273 277
258 259 260 264 262 266 271 273 272 273 269 261 252 247 244 242 240 238 237 234 234 234 234 237 238 241 244 241 240 238 241 244 249 252 253 258 263 266 269 270 271 275 276
266 267 266 266 269 268 265 264 265 263 263 257 252 246 242 239 238 239 236 236 236 236 236 237 237 240 243 245 246 244 243 245 247 252 255 259 266 269 268 268 272 272 274
266 263 263 265 263 261 262 263 263 262 264 261 255 249 244 239 235 236 238 236 236 235 236 237 238 239 242 244 247 248 248 245 247 252 256 259 264 266 268 269 271 272 270
263 266 270 270 262 254 252 257 254 254 252 252 252 250 243 240 235 233 235 237 236 235 236 239 239 240 243 244 246 249 251 253 255 255 258 260 264 268 267 267 267 265 264
262 263 267 261 241 236 236 221 230 226 219 270 254 248 242 240 236 234 236 237 239 239 239 240 240 240 243 246 248 249 251 253 256 258 263 264 262 262 263 262 262 261 260
255 257 259 238 218 222 222 224 195 210 204 260 255 227 212 214 218 219 226 230 232 235 237 239 241 242 244 246 248 250 251 252 253 254 257 260 261 260 260 258 253 253 249
Height
10714 10714 10715 10716 10716 10717 10717 10718 10719 10722 10724 10726 10725 10724 10727 10729 10730 10731 10731 10732 10731 10731 10731 10730 10728 10728 10726 10725 10723 10721 10719 10718 10719 10722 10726 10727 10730 10731 10731 10733 10735 10737 10739
10701 10703 10703 10704 10706 10708 10707 10707 10710 10712 10716 10716 10716 10716 10718 10719 10720 10723 10724 10725 10724 10723 10725 10724 10723 10722 10722 10721 10720 10717 10716 10715 10714 10716 10719 10721 10722 10723 10726 10728 10730 10732 10734
10686 10689 10689 10692 10696 10698 10699 10698 10699 10699 10700 10705 10706 10706 10708 10709 10710 10713 10715 10716 10717 10716 10716 10718 10718 10716 10716 10716 10715 10715 10714 10713 10712 10712 10712 10716 10718 10718 10719 10722 10725 10727 10729
10670 10672 10673 10676 10679 10683 10685 10687 10686 10690 10687 10688 10690 10693 10695 10695 10699 10702 10704 10707 10708 10708 10709 10709 10712 10711 10711 10711 10711 10711 10711 10710 10709 10709 10708 10708 10712 10714 10715 10715 10719 10721 10723
10651 10654 10656 10660 10663 10666 10668 10671 10673 10674 10675 10674 10676 10676 10682 10683 10685 10692 10692 10696 10698 10698 10700 10700 10702 10704 10704 10705 10705 10706 10706 10705 10705 10703 10703 10704 10704 10707 10709 10710 10711 10715 10717
10629 10633 10636 10640 10645 10649 10652 10654 10656 10658 10658 10660 10664 10667 10668 10671 10674 10677 10680 10683 10686 10688 10690 10691 10693 10693 10695 10697 10698 10698 10699 10699 10699 10699 10699 10699 10698 10700 10704 10707 10707 10708 10710
10604 10607 10611 10615 10621 10628 10630 10636 10639 10640 10643 10639 10650 10652 10655 10671 10658 10664 10665 10667 10672 10676 10678 10681 10683 10683 10685 10687 10691 10691 10693 10692 10692 10693 10695 10694 10694 10694 10700 10702 10702 10703 10702
10578 10583 10585 10588 10593 10599 10605 10610 10614 10619 10624 10621 10626 10629 10642 10649 10642 10648 10651 10655 10656 10662 10666 10667 10672 10675 10676 10680 10681 10682 10684 10685 10684 10685 10687 10689 10689 10690 10692 10695 10696 10697 10697
10547 10551 10556 10561 10564 10568 10574 10579 10587 10593 10601 10602 10605 10608 10615 10627 10626 10633 10635 10639 10642 10648 10651 10654 10659 10663 10665 10669 10671 10672 10673 10675 10675 10677 10678 10681 10682 10684 10685 10687 10689 10689 10689
10515 10516 10521 10526 10530 10536 10543 10549 10555 10563 10570 10578 10579 10588 10592 10598 10608 10614 10619 10624 10628 10634 10637 10641 10645 10650 10653 10657 10659 10661 10663 10664 10665 10665 10666 10668 10672 10674 10676 10678 10679 10680 10680
10479 10479 10483 10487 10495 10501 10507 10515 10525 10533 10542 10550 10553 10560 10573 10575 10585 10593 10603 10607 10613 10618 10621 10627 10631 10636 10640 10643 10646 10648 10649 10652 10655 10654 10655 10656 10658 10665 10666 10668 10668 10669 10670
10444 10446 10449 10453 10458 10465 10474 10481 10492 10502 10510 10522 10525 10536 10544 10555 10564 10570 10580 10588 10596 10600 10605 10611 10615 10620 10625 10628 10632 10634 10635 10640 10643 10643 10643 10645 10646 10651 10655 10656 10657 10657 10657
10414 10416 10419 10421 10426 10432 10439 10449 10459 10470 10479 10491 10499 10507 10519 10532 10540 10548 10558 10569 10580 10581 10588 10596 10598 10601 10606 10612 10616 10618 10621 10625 10629 10632 10630 10629 10632 10636 10641 10644 10644 10645 10646
10388 10390 10394 10395 10398 10404 10408 10416 10426 10437 10446 10457 10468 10477 10489 10505 10516 10527 10535 10541 10555 10565 10570 10578 10577 10583 10590 10594 10599 10603 10606 10609 10614 10618 10619 10616 10618 10622 10625 10628 10631 10632 10632
10369 10371 10373 10374 10377 10380 10386 10393 10399 10406 10413 10424 10435 10447 10460 10471 10484 10498 10509 10519 10530 10542 10553 10554 10558 10562 10572 10580 10584 10587 10590 10593 10595 10601 10604 10605 10606 10608 10611 10613 10616 10617 10619
10353 10354 10355 10357 10360 10361 10364 10370 10376 10383 10390 10398 10408 10420 10432 10444 10456 10468 10483 10493 10502 10517 10531 10532 10538 10543 10551 10562 10569 10570 10574 10575 10579 10584 10586 10587 10590 10592 10595 10597 10599 10602 10604
10338 10340 10340 10342 10343 10345 10345 10350 10358 10364 10370 10376 10384 10394 10406 10418 10431 10443 10456 10469 10481 10490 10507 10507 10515 10523 10529 10541 10548 10552 10557 10559 10563 10570 10571 10570 10572 10575 10578 10582 10585 10586 10589
10325 10327 10327 10328 10329 10328 10329 10331 10337 10346 10351 10356 10360 10368 10378 10387 10401 10413 10428 10443 10454 10464 10480 10492 10493 10502 10509 10514 10524 10533 10538 10545 10548 10551 10556 10559 10560 10561 10562 10565 10567 10570 10572
10313 10315 10315 10315 10314 10315 10315 10316 10319 10325 10333 10337 10341 10347 10352 10361 10373 10383 10398 10416 10428 10439 10453 10467 10470 10478 10488 10494 10501 10510 10517 10522 10527 10531 10532 10537 10541 10543 10544 10548 10550 10551 10555
10299 10301 10302 10302 10303 10304 10304 10304 10305 10308 10313 10318 10323 10325 10332 10341 10350 10361 10373 10387 10400 10414 10426 10439 10450 10454 10464 10471 10478 10488 10495 10500 10504 10508 10511 10514 10519 10525 10528 10531 10532 10535 10536
10290 10291 10293 10294 10292 10292 10293 10292 10292 10295 10298 10301 10305 10310 10315 10320 10328 10336 10347 10359 10375 10388 10400 10413 10426 10430 10437 10445 10457 10463 10468 10475 10482 10488 10491 10492 10496 10504 10508 10510 10511 10513 10516
10279 10280 10280 10281 10282 10283 10282 10282 10284 10285 10286 10288 10290 10293 10297 10301 10309 10317 10327 10340 10352 10364 10378 10387 10399 10408 10416 10420 10429 10440 10449 10454 10464 10470 10467 10471 10475 10481 10482 10486 10490 10492 10495
10270 10271 10271 10273 10274 10273 10272 10273 10274 10275 10275 10276 10277 10279 10282 10287 10294 10301 10311 10321 10330 10341 10351 10361 10372 10385 10393 10401 10410 10416 10418 10423 10438 10444 10443 10448 10451 10457 10461 10464 10469 10471 10474
10261 10261 10261 10264 10264 10264 10265 10267 10268 10269 10269 10268 10268 10269 10271 10276 10281 10288 10296 10305 10313 10321 10331 10340 10350 10361 10372 10379 10385 10389 10394 10399 10412 10417 10416 10419 10427 10435 10436 10441 10443 10445 10451
10251 10251 10253 10255 10256 10257 10259 10260 10262 10262 10262 10263 10263 10263 10265 10268 10272 10279 10287 10293 10300 10307 10315 10322 10330 10341 10352 10359 10363 10368 10373 10379 10385 10386 10390 10394 10402 10406 10407 10414 10419 10423 10429
10242 10243 10244 10246 10248 10250 10252 10252 10254 10256 10256 10259 10258 10259 10260 10263 10267 10271 10276 10282 10288 10294 10300 10305 10312 10321 10329 10335 10340 10345 10351 10356 10361 10362 10365 10370 10376 10379 10384 10389 10395 10401 10407